Location: Alvediston
(51.0078°N, 2.0364°W)
Time: 19:52:07
(UTC+00:00)

ADEOS Rocket - Pass Details

Date: 27 February 2020
Orbit: 859 x 1306 km, 98.7° (Epoch: 30 March)

Event Time Altitude Azimuth Distance (km) Brightness Sun altitude
Rises 19:50:28 0° 13° (NNE) 4,280 6.4 -20.5°
Reaches altitude 10° 19:53:11 10° 10° (N) 3,326 5.8 -20.9°
Maximum altitude 20:00:47 59° 294° (WNW) 1,490 4.2 -22.0°
Drops below altitude 10° 20:08:12 10° 218° (SW) 3,249 6.0 -23.2°
Sets 20:10:51 0° 215° (SW) 4,175 6.5 -23.6°
